• In Austria
  • List of Countries
  • For 7 days
  • Water Temperature
  • Satellite Maps
  • Weather Map
  • News
  • Weather Widgets
  • user-avatar
    Login

    Hourly Weather Ali Bayramli

    Today, 23 May, Wednesday

    Time Temperature Precipitation Wind Pressure Humidity
    00:00 +24°C° 0 mm 2 mps 762 mmHg 47%
    01:00 +24°C° 0 mm 2 mps 762 mmHg 48%
    02:00 +23°C° 0 mm 1 mps 762 mmHg 49%
    03:00 +23°C° 0 mm 1 mps 762 mmHg 50%
    04:00 +23°C° 0 mm 2 mps 762 mmHg 48%
    05:00 +24°C° 0 mm 2 mps 762 mmHg 45%
    06:00 +25°C° 0 mm 2 mps 762 mmHg 43%
    07:00 +27°C° 0 mm 2 mps 762 mmHg 38%
    08:00 +28°C° 0 mm 2 mps 762 mmHg 33%
    09:00 +30°C° 0 mm 2 mps 762 mmHg 28%
    10:00 +32°C° 0 mm 2 mps 762 mmHg 25%
    11:00 +34°C° 0 mm 3 mps 762 mmHg 22%
    12:00 +35°C° 0 mm 3 mps 762 mmHg 19%
    13:00 +35°C° 0 mm 4 mps 762 mmHg 19%
    14:00 +36°C° 0 mm 5 mps 761 mmHg 18%
    15:00 +36°C° 0 mm 6 mps 761 mmHg 17%
    16:00 +34°C° 0 mm 6 mps 761 mmHg 20%
    17:00 +33°C° 0 mm 5 mps 761 mmHg 23%
    18:00 +32°C° 0 mm 5 mps 761 mmHg 26%
    19:00 +29°C° 0 mm 4 mps 761 mmHg 32%
    20:00 +27°C° 0 mm 3 mps 761 mmHg 39%
    21:00 +25°C° 0 mm 2 mps 761 mmHg 45%
    22:00 +25°C° 0 mm 2 mps 761 mmHg 46%
    23:00 +24°C° 0 mm 1 mps 761 mmHg 47%

    Tomorrow, 24 May, Thursday

    Time Temperature Precipitation Wind Pressure Humidity
    00:00 +24°C° 0 mm 1 mps 761 mmHg 48%
    01:00 +23°C° 0 mm 1 mps 761 mmHg 46%
    02:00 +23°C° 0 mm 1 mps 760 mmHg 44%
    03:00 +23°C° 0 mm 1 mps 760 mmHg 42%
    04:00 +23°C° 0 mm 2 mps 760 mmHg 41%
    05:00 +24°C° 0 mm 2 mps 760 mmHg 40%
    06:00 +25°C° 0 mm 2 mps 760 mmHg 39%
    07:00 +26°C° 0 mm 2 mps 760 mmHg 35%
    08:00 +28°C° 0 mm 2 mps 760 mmHg 31%
    09:00 +30°C° 0 mm 1 mps 760 mmHg 27%
    10:00 +31°C° 0 mm 2 mps 759 mmHg 25%
    11:00 +32°C° 0 mm 2 mps 759 mmHg 22%
    12:00 +35°C° 0 mm 2 mps 759 mmHg 20%
    13:00 +35°C° 0 mm 3 mps 758 mmHg 19%
    14:00 +35°C° 0 mm 4 mps 758 mmHg 19%
    15:00 +36°C° 0 mm 5 mps 757 mmHg 19%
    16:00 +34°C° 0 mm 5 mps 757 mmHg 23%
    17:00 +33°C° 0 mm 5 mps 756 mmHg 27%
    18:00 +32°C° 0 mm 5 mps 756 mmHg 31%
    19:00 +29°C° 0 mm 4 mps 756 mmHg 36%
    20:00 +28°C° 0 mm 3 mps 756 mmHg 41%
    21:00 +26°C° 0 mm 2 mps 756 mmHg 46%
    22:00 +25°C° 0 mm 2 mps 756 mmHg 48%
    23:00 +25°C° 0 mm 1 mps 756 mmHg 50%

    Day after tomorrow, 25 May, Friday

    Time Temperature Precipitation Wind Pressure Humidity
    00:00 +24°C° 0 mm 1 mps 756 mmHg 52%
    01:00 +24°C° 0 mm 1 mps 755 mmHg 53%
    02:00 +23°C° 0 mm 1 mps 755 mmHg 54%
    03:00 +23°C° 0 mm 1 mps 755 mmHg 55%
    04:00 +24°C° 0 mm 1 mps 755 mmHg 54%
    05:00 +24°C° 0 mm 1 mps 755 mmHg 52%
    06:00 +25°C° 0 mm 1 mps 755 mmHg 51%
    07:00 +26°C° 0 mm 1 mps 755 mmHg 45%
    08:00 +28°C° 0 mm 2 mps 755 mmHg 39%
    09:00 +30°C° 0 mm 2 mps 755 mmHg 34%
    10:00 +31°C° 0 mm 2 mps 755 mmHg 30%
    11:00 +32°C° 0 mm 2 mps 754 mmHg 27%
    12:00 +34°C° 0 mm 2 mps 754 mmHg 23%
    13:00 +35°C° 0 mm 2 mps 753 mmHg 23%
    14:00 +35°C° 0 mm 3 mps 753 mmHg 23%
    15:00 +36°C° 0 mm 4 mps 753 mmHg 23%
    16:00 +35°C° 0 mm 4 mps 752 mmHg 25%
    17:00 +34°C° 0 mm 4 mps 752 mmHg 27%
    18:00 +33°C° 0 mm 4 mps 752 mmHg 30%
    19:00 +30°C° 0.1 mm 4 mps 752 mmHg 34%
    20:00 +29°C° 0.1 mm 4 mps 753 mmHg 37%
    21:00 +27°C° 0.1 mm 4 mps 753 mmHg 41%
    22:00 +26°C° 0 mm 3 mps 753 mmHg 43%
    23:00 +26°C° 0 mm 2 mps 753 mmHg 45%

    26 May, Saturday

    Time Temperature Precipitation Wind Pressure Humidity
    00:00 +25°C° 0 mm 1 mps 753 mmHg 46%
    01:00 +25°C° 0 mm 1 mps 752 mmHg 48%
    02:00 +25°C° 0 mm 1 mps 752 mmHg 49%
    03:00 +24°C° 0 mm 1 mps 752 mmHg 50%
    04:00 +25°C° 0 mm 1 mps 753 mmHg 48%
    05:00 +26°C° 0 mm 1 mps 753 mmHg 46%
    06:00 +26°C° 0 mm 1 mps 753 mmHg 44%
    07:00 +28°C° 0 mm 1 mps 753 mmHg 41%
    08:00 +30°C° 0 mm 2 mps 754 mmHg 38%
    09:00 +31°C° 0 mm 2 mps 754 mmHg 35%
    10:00 +33°C° 0 mm 3 mps 754 mmHg 34%
    11:00 +34°C° 0 mm 3 mps 754 mmHg 33%
    12:00 +35°C° 0 mm 4 mps 754 mmHg 32%
    13:00 +35°C° 0 mm 5 mps 754 mmHg 33%
    14:00 +35°C° 0 mm 6 mps 754 mmHg 34%
    15:00 +35°C° 0 mm 8 mps 754 mmHg 35%
    16:00 +33°C° 0.9 mm 9 mps 755 mmHg 40%
    17:00 +31°C° 0.9 mm 10 mps 756 mmHg 45%
    18:00 +28°C° 0.9 mm 12 mps 756 mmHg 50%
    19:00 +27°C° 1.1 mm 12 mps 757 mmHg 52%
    20:00 +24°C° 1.1 mm 11 mps 758 mmHg 54%
    21:00 +23°C° 1.1 mm 11 mps 759 mmHg 55%
    22:00 +22°C° 0.7 mm 12 mps 760 mmHg 56%
    23:00 +22°C° 0.7 mm 12 mps 761 mmHg 57%

    27 May, Sunday

    Time Temperature Precipitation Wind Pressure Humidity
    00:00 +21°C° 0.7 mm 12 mps 761 mmHg 58%
    01:00 +19°C° 0.3 mm 12 mps 762 mmHg 57%
    02:00 +19°C° 0.3 mm 11 mps 762 mmHg 56%
    03:00 +19°C° 0.3 mm 11 mps 763 mmHg 55%
    04:00 +18°C° 0.4 mm 11 mps 764 mmHg 56%
    05:00 +18°C° 0.4 mm 11 mps 764 mmHg 57%
    06:00 +17°C° 0.4 mm 10 mps 765 mmHg 58%
    07:00 +18°C° 0.2 mm 10 mps 766 mmHg 58%
    08:00 +18°C° 0.2 mm 10 mps 766 mmHg 57%
    09:00 +18°C° 0.2 mm 9 mps 767 mmHg 57%
    10:00 +18°C° 0 mm 9 mps 767 mmHg 56%
    11:00 +18°C° 0 mm 8 mps 767 mmHg 56%
    12:00 +20°C° 0 mm 8 mps 767 mmHg 55%
    13:00 +20°C° 0 mm 7 mps 767 mmHg 53%
    14:00 +21°C° 0 mm 7 mps 767 mmHg 51%
    15:00 +22°C° 0 mm 6 mps 767 mmHg 49%
    16:00 +21°C° 0 mm 6 mps 767 mmHg 50%
    17:00 +21°C° 0 mm 6 mps 767 mmHg 51%
    18:00 +21°C° 0 mm 5 mps 767 mmHg 52%
    19:00 +20°C° 0 mm 4 mps 767 mmHg 54%
    20:00 +19°C° 0 mm 3 mps 767 mmHg 56%
    21:00 +19°C° 0 mm 2 mps 768 mmHg 58%
    22:00 +18°C° 0 mm 2 mps 767 mmHg 60%
    23:00 +18°C° 0 mm 2 mps 767 mmHg 61%

    28 May, Monday

    Time Temperature Precipitation Wind Pressure Humidity
    00:00 +19°C° 0 mm 1 mps 766 mmHg 62%
    01:00 +18°C° 0 mm 1 mps 766 mmHg 63%
    02:00 +18°C° 0 mm 1 mps 765 mmHg 64%
    03:00 +18°C° 0 mm 1 mps 765 mmHg 66%
    04:00 +18°C° 0 mm 1 mps 765 mmHg 64%
    05:00 +19°C° 0 mm 1 mps 765 mmHg 62%
    06:00 +19°C° 0 mm 1 mps 764 mmHg 60%
    07:00 +19°C° 0 mm 2 mps 764 mmHg 58%
    08:00 +21°C° 0 mm 2 mps 763 mmHg 56%
    09:00 +22°C° 0 mm 3 mps 763 mmHg 54%
    10:00 +24°C° 0 mm 3 mps 762 mmHg 51%
    11:00 +25°C° 0 mm 3 mps 762 mmHg 48%
    12:00 +27°C° 0 mm 3 mps 761 mmHg 45%
    13:00 +27°C° 0 mm 3 mps 761 mmHg 44%
    14:00 +28°C° 0 mm 3 mps 760 mmHg 43%
    15:00 +29°C° 0 mm 3 mps 760 mmHg 42%
    16:00 +28°C° 0 mm 4 mps 760 mmHg 45%
    17:00 +27°C° 0 mm 4 mps 760 mmHg 49%
    18:00 +26°C° 0 mm 5 mps 760 mmHg 52%
    19:00 +25°C° 0 mm 4 mps 761 mmHg 56%
    20:00 +23°C° 0 mm 4 mps 761 mmHg 60%
    21:00 +22°C° 0 mm 3 mps 762 mmHg 64%
    22:00 +22°C° 0 mm 3 mps 762 mmHg 66%
    23:00 +21°C° 0 mm 3 mps 762 mmHg 68%
    Show more